RH
3 3 3 3 4 4 4 6 9 9 8 8 8 9 9 9 8 7 7 7 8 34 38 35 26 31 51 31 34 51 63 63 64
4 4 4 4 5 5 5 5 8 8 7 6 6 7 8 9 10 9 10 10 10 9 10 8 8 11 28 47 42 37 44 53 61
4 4 6 7 9 10 10 8 8 8 7 6 5 5 4 5 6 8 9 8 9 10 10 11 11 9 12 22 44 46 38 43 50
4 5 5 6 8 10 11 9 8 8 7 6 5 4 3 2 2 2 4 6 7 6 6 7 8 9 11 13 12 24 37 44 42
4 4 4 6 8 9 9 9 8 7 6 5 5 5 4 2 2 3 3 3 3 4 4 6 7 7 8 11 12 17 32 64 50
3 3 4 5 7 8 8 8 6 5 4 4 4 5 4 3 2 3 4 4 4 5 7 8 9 9 9 9 10 11 13 20 28
3 3 4 4 5 6 6 5 5 4 3 3 2 3 4 4 3 3 4 4 4 5 6 8 9 8 8 8 7 7 8 8 10
3 3 3 3 3 4 4 4 4 4 3 2 2 2 2 2 2 3 4 5 5 5 5 6 6 7 7 8 7 8 8 8 8
3 3 3 3 3 3 3 3 3 4 3 2 2 2 2 2 3 4 4 5 5 5 5 6 6 6 6 7 7 8 8 8 8
3 3 3 3 4 4 3 3 3 3 3 3 3 2 3 3 4 4 5 5 5 5 5 6 6 7 7 7 7 8 8 8 8
4 3 4 4 4 4 5 5 4 4 3 4 4 3 3 3 4 4 4 4 5 5 5 6 6 6 6 6 6 6 7 7 7
4 4 5 6 5 5 6 6 6 6 5 5 5 4 4 4 4 4 4 4 5 5 5 5 6 6 6 6 6 7 7 7 7
5 7 9 9 6 6 7 7 7 7 7 7 7 6 6 5 5 5 5 6 6 6 6 6 6 6 6 6 6 6 7 7 7
9 14 18 20 13 8 8 9 9 9 8 8 8 8 8 7 8 8 8 8 8 7 6 6 6 6 6 6 6 6 6 7 7
12 15 20 26 27 18 12 10 10 10 10 9 9 9 9 10 10 10 10 11 11 11 12 12 12 11 10 10 10 9 8 8 8
11 11 13 19 26 25 20 15 13 12 12 12 13 11 12 13 14 14 15 16 16 16 15 14 14 14 13 13 13 12 12 11 11
13 13 15 23 30 29 24 20 17 16 15 15 14 16 19 22 24 26 27 27 25 23 22 22 21 22 21 21 22 22 21 21 21
14 17 22 30 36 36 33 30 27 25 24 25 27 29 32 32 33 33 32 31 30 30 30 30 30 30 29 28 28 28 28 27 27
16 20 27 35 39 38 36 35 34 33 33 35 36 37 35 29 25 24 22 22 21 21 21 21 21 20 18 17 15 14 14 13 13
25 30 34 37 39 39 38 38 38 38 39 38 33 26 23 23 22 22 20 16 14 13 12 10 10 10 8 9 8 8 8 8 8
Wind_Speed
15 15 16 17 18 19 20 19 18 18 18 17 16 15 15 15 18 20 18 18 16 13 13 15 13 13 13 14 13 14 12 11 11
16 17 18 18 19 20 20 19 18 18 17 17 16 15 16 17 17 18 18 17 15 15 17 15 15 16 16 16 15 16 15 14 12
18 17 17 18 18 19 18 17 16 15 16 16 16 16 17 18 18 18 18 18 16 16 17 16 16 17 17 18 17 17 17 17 16
16 15 16 18 19 17 15 14 14 14 15 15 15 16 16 17 18 18 17 17 17 17 16 16 17 17 17 17 18 19 19 18 19
16 17 16 16 18 16 13 12 12 13 13 14 14 15 14 15 15 14 14 15 16 15 15 14 14 14 15 16 18 19 18 15 18
15 16 15 14 16 17 15 14 13 13 14 15 14 15 15 15 14 13 14 15 15 15 14 13 13 14 15 17 18 19 21 22 21
15 16 16 15 16 16 18 16 16 15 14 16 16 15 16 15 14 14 14 14 15 15 15 15 16 16 17 17 18 17 18 20 21
17 18 18 17 17 17 17 18 17 17 16 16 16 15 16 15 14 14 14 14 14 15 16 16 17 18 18 18 18 18 19 19 19
19 20 22 21 20 19 18 18 19 18 18 16 16 16 15 13 12 14 14 15 15 15 16 17 18 18 18 18 19 18 19 19 20
21 23 23 24 23 22 21 20 19 20 19 19 18 18 18 16 14 15 15 15 16 16 17 17 18 18 18 18 18 18 19 20 20
23 25 25 26 25 23 23 22 21 19 21 21 20 20 20 20 17 16 17 17 18 18 18 18 18 18 18 18 18 18 19 20 20
25 26 27 27 25 23 22 22 21 20 20 20 21 21 22 21 20 19 17 19 19 20 20 20 19 19 20 20 19 18 19 20 20
26 27 26 25 24 22 21 20 20 19 18 18 19 20 21 21 20 20 20 19 21 22 21 21 20 20 20 20 20 20 20 20 20
26 25 25 24 24 23 22 21 19 18 17 16 16 17 18 18 18 19 20 20 19 19 20 20 20 20 21 20 21 20 20 20 21
25 24 24 24 24 23 22 21 20 17 16 15 14 14 14 15 16 16 17 17 17 17 16 18 18 19 20 20 21 20 20 20 20
25 25 25 25 25 24 23 22 20 20 18 16 16 15 14 15 15 17 17 17 17 18 18 18 18 18 19 19 20 20 20 20 20
26 27 26 26 25 25 23 21 20 19 18 18 16 15 14 14 14 16 17 18 18 18 17 18 19 19 19 19 19 20 21 21 21
27 27 26 25 24 24 23 21 21 18 21 19 19 20 18 18 16 17 19 20 20 20 20 20 20 21 21 21 21 22 23 23 24
27 27 26 26 25 24 23 22 21 21 20 21 22 23 25 24 20 18 18 20 21 21 22 22 24 24 23 24 24 24 24 24 24
27 27 26 25 24 24 23 22 22 23 22 23 23 23 24 25 28 22 19 22 24 25 24 23 23 24 24 23 23 23 23 22 22
Wind_Direction
326 323 321 317 314 311 307 304 303 301 300 298 296 292 287 279 275 279 282 285 290 276 270 266 264 260 268 267 260 261 267 271 272
324 323 321 319 316 312 307 304 303 303 302 299 296 293 289 284 282 286 285 283 282 280 277 278 268 263 255 260 261 261 260 259 263
322 325 327 325 322 319 312 307 303 301 302 301 298 295 291 286 285 281 283 288 285 277 275 273 270 267 261 255 256 258 258 259 260
325 327 328 333 331 328 323 314 310 308 305 301 298 295 296 293 287 284 281 277 276 274 273 271 268 267 265 264 261 261 258 258 257
326 324 328 335 334 333 331 318 308 303 298 294 290 290 290 283 285 288 283 276 274 274 271 269 269 267 264 263 261 259 260 260 258
327 327 329 332 332 331 328 321 312 307 301 296 290 286 284 287 291 287 282 279 280 277 275 270 266 263 260 257 257 257 256 253 257
332 331 330 329 325 325 321 317 311 305 301 296 289 282 279 280 285 281 280 281 281 281 277 273 270 269 268 266 264 263 262 261 260
326 325 324 325 320 314 315 313 309 305 301 299 295 287 280 278 275 272 273 276 279 281 279 276 273 271 271 269 269 266 264 262 260
322 322 321 320 315 312 309 308 309 305 303 300 293 290 285 279 269 266 268 271 272 271 273 271 271 270 271 272 272 271 270 268 265
320 318 318 316 313 309 305 303 303 302 300 300 295 287 285 280 275 275 275 277 279 277 274 271 269 270 270 271 271 271 269 268 266
317 317 317 315 313 312 309 304 298 294 294 296 294 289 284 282 277 274 279 279 278 277 275 274 274 274 274 274 272 271 269 267 265
318 318 317 315 314 314 313 309 303 294 287 285 287 287 286 283 281 279 276 277 279 279 279 278 277 276 276 276 276 274 271 271 270
318 318 318 317 317 316 313 310 309 304 296 289 285 283 284 286 286 283 281 280 281 281 279 276 273 271 271 272 272 270 269 269 269
317 318 318 318 317 315 311 309 308 306 304 298 292 290 292 291 291 291 288 286 281 278 280 279 278 277 276 275 274 274 271 270 270
315 316 316 316 315 313 310 308 306 303 301 300 298 297 298 302 300 297 294 290 288 284 278 277 278 276 275 275 275 274 273 271 270
313 312 312 312 311 310 309 307 306 304 302 300 301 297 298 298 300 297 294 293 289 287 285 283 279 278 279 279 280 278 275 273 271
310 310 310 309 308 308 306 304 303 302 298 297 294 289 289 286 288 290 291 291 290 287 285 286 285 284 281 278 276 277 277 276 273
307 308 307 305 305 304 304 303 302 300 299 299 299 296 292 289 291 291 291 289 289 290 288 285 282 281 279 278 276 275 274 273 273
305 305 303 302 301 300 300 300 299 299 298 299 301 301 301 299 289 289 289 287 285 283 282 281 279 276 275 275 273 272 271 271 271
304 302 300 298 297 296 296 298 298 298 299 299 298 298 300 300 297 291 282 284 286 286 283 280 278 277 276 274 272 270 270 270 270